Location: Fort Worth, Tx
(32.7431°N, 97.3695°W)
Time: 18:11:48
(UTC-04:00)

ISS - Visible Passes

Search period start: 16 October 2017 00:00
Search period end: 26 October 2017 00:00
Orbit: 401 x 408 km, 51.6° (Epoch: 17 October)

Date Brightness Start Highest point End Pass type
(mag) Time Alt. Az. Time Alt. Az. Time Alt. Az.
16 Oct -3.6 20:54:24 10° NW 20:57:40 69° SW 21:00:17 15° SE visible
17 Oct -0.5 21:40:58 10° WSW 21:41:31 10° SW 21:42:04 10° SW visible
18 Oct -1.3 20:46:48 10° WNW 20:49:25 22° SW 20:52:02 10° S visible
25 Oct -0.1 08:11:54 10° SE 08:12:31 10° SE 08:13:07 10° ESE visible
